Location: Munkebjergskolens Observatorium
(55.3864°N, 10.3987°E)
Time: 23:50:11
(UTC+01:00)

DELTA 1 DEB - Pass Details

Date: 04 December 2023
Orbit: 783 x 826 km, 98.9° (Epoch: 04 March)

Event Time Altitude Azimuth Distance (km) Brightness Sun altitude
Rises 05:59:36 0° 23° (NNE) 3,368 ? -19.3°
Reaches altitude 10° 06:02:25 10° 37° (NE) 2,435 ? -18.9°
Maximum altitude 06:06:45 24° 91° (E) 1,647 ? -18.3°
Drops below altitude 10° 06:11:05 10° 144° (SE) 2,430 ? -17.7°
Sets 06:13:52 0° 158° (SSE) 3,358 ? -17.4°
